[Iaude] MPEC C182: 2013 DB1 [a=1.69,e=0.36,i=5.6,H=26.07]

mpec at cfa.harvard.edu mpec at cfa.harvard.edu
Thu Feb 15 08:40:30 EST 2024


M.P.E.C. 2024-C182                            Issued 2024 February 15, 13:38 UT

     The Minor Planet Electronic Circulars contain information on unusual
         minor planets, routine data on comets and natural satellites,
         and occasional editorial announcements.  They are published
    on behalf of Division F of the International Astronomical Union by the
          Minor Planet Center, Smithsonian Astrophysical Observatory,
                          Cambridge, MA 02138, U.S.A.
			  
             Prepared using the Tamkin Foundation Computer Network

                              MPC at CFA.HARVARD.EDU
            URL https://www.minorplanetcenter.net/    ISSN 1523-6714

                                    2013 DB1                                    


                           Revision to MPEC 2013-D34                            

Additional Observations:
     K13D01B  C2024 02 09.33461809 14 25.207+10 45 42.37         21.56GVEC182F52
     K13D01B  C2024 02 09.34624609 14 28.698+10 46 13.74         21.70GVEC182F52
     K13D01B  C2024 02 09.35787309 14 32.197+10 46 45.35         21.62GVEC182F52
     K13D01B  C2024 02 09.36949609 14 35.660+10 47 16.64         21.60GVEC182F52
     K13D01B  C2024 02 14.34775809 44 09.301+14 33 31.40         21.38wXEC182F52
     K13D01B  C2024 02 14.35940209 44 13.251+14 34 04.29         21.37wXEC182F52
     K13D01B  C2024 02 14.37105009 44 17.207+14 34 36.80         21.34wXEC182F52
     K13D01B  C2024 02 14.51270609 45 05.041+14 41 05.15         21.14GVEC182F51
     K13D01B  C2024 02 14.51334909 45 05.271+14 41 07.20         21.03GVEC182F51
     K13D01B IC2024 02 14.95003409 47 53.79 +15 00 24.9          21.3 GVEC182L01
     K13D01B pC2024 02 14.95340409 47 54.92 +15 00 33.2          21.5 GVEC182L01
     K13D01B KC2024 02 14.95677709 47 56.06 +15 00 42.9          21.3 GVEC182L01
     K13D01B KC2024 02 14.96047109 47 57.41 +15 00 52.9          21.5 GVEC182L01

Observer details:
F51 Pan-STARRS 1, Haleakala.  Observers J. Herman, T. Lowe, P. Minguez, A.
    Schultz, I. Smith.  Measurers K. Chambers, T. de Boer, J. Fairlamb, H.
    Gao, M. Huber, C.-C. Lin, E. Magnier, Y. Ramanjooloo, R. Wainscoat, R.
    Weryk.  1.8-m Ritchey-Chretien + CCD.
F52 Pan-STARRS 2, Haleakala.  Observers J. Herman, T. Lowe, P. Minguez, A.
    Schultz, I. Smith.  Measurers K. Chambers, T. de Boer, J. Fairlamb, H.
    Gao, M. Huber, C.-C. Lin, E. Magnier, Y. Ramanjooloo, R. Wainscoat, R.
    Weryk.  1.8-m Ritchey-Chretien + CCD.
L01 Visnjan Observatory, Tican.  Observer K. Korlevic.  1.0-m f/2.9 reflector
    + CCD.

First and last observations above in comparison with prediction:
Residuals in seconds of arc (or zero decimals in degrees), reference and Delta-T
240209 F52   68+    4+    240214 L01   72+    2+    MPO253356   +10.8 days

Orbital elements:
2013 DB1                                                 Earth MOID = 0.0888 AU
Epoch 2024 Mar. 31.0 TT = JDT 2460400.5                 Veres                   
M  19.20268              (2000.0)            P               Q                  
n   0.44803892     Peri.    3.63069     -0.84378807     -0.53359174             
a   1.6914489      Node   143.93064     +0.48990015     -0.80953297             
e   0.3637201      Incl.    5.60057     +0.21913361     -0.24481874             
P   2.20           H   26.07          G   0.15           U   2                  
Residuals in seconds of arc
130217 G96  0.1-  0.1-    130218 G96  0.4+  0.1+    240214 F52  0.1+  0.1-
130217 G96  0.5-  1.1-    130218 G96  0.5-  0.4-    240214 F52  0.3-  0.0
130217 G96  0.3-  0.4-    130218 G96  0.2+  0.1+    240214 F52  0.4-  0.2-
130217 G96  0.3-  0.6-    130218 H21  0.2-  0.9+    240214 F51  0.1-  0.1-
130217 G96  0.5-  0.1+    130218 H21  0.5+  0.3-    240214 F51  0.1+  0.2+
130217 G96  0.8-  0.2-    240209 F52  0.4+  0.0     240214 L01  0.7+  0.6+
130217 G96  0.4+  0.9+    240209 F52  0.0   0.2-    240214 L01  0.0   0.4-
130217 G96  0.4+  0.4+    240209 F52  0.0   0.0     240214 L01  0.5-  0.1+
130217 G96  0.5-  0.4-    240209 F52  0.3-  0.1-    240214 L01  0.3+  0.0

Ephemeris:
2013 DB1                 a,e,i = 1.69, 0.36, 6                   q = 1.0762
Date    TT    R. A. (2000) Decl.     Delta      r    Elong.  Phase     V
2024 01 16    07 46 54.9 -00 02 56   0.1471  1.1221   158.8    18.5    23.1
...
2024 01 31    08 29 56.9 +04 47 41   0.1073  1.0896   166.2    12.5    22.2
...
2024 02 08    09 07 05.1 +09 47 48   0.09431 1.0800   173.2     6.2    21.6
...
2024 02 14    09 41 55.3 +14 17 49   0.08928 1.0766   178.5     1.4    21.2
2024 02 15    09 48 11.8 +15 03 28   0.08888 1.0764   177.9     1.9    21.2
2024 02 16    09 54 34.3 +15 48 42   0.08861 1.0762   176.9     2.9    21.3
...
2024 02 22    10 33 52.6 +19 58 41   0.08961 1.0773   169.8     9.3    21.6
...
2024 03 01    11 23 33.7 +23 53 06   0.09754 1.0838   161.7    16.7    22.1
...
2024 03 16    12 28 24.1 +25 51 45   0.1283  1.1112   153.6    23.4    22.9

A. U. Tomatic                (C) Copyright 2024 MPC           M.P.E.C. 2024-C182





More information about the Iaude mailing list